Gustavus, AK

7:56 AM AKST on February 27, 2017 (GMT -0900)
Gustavus

Weather History for PAGS - November, 2013

Change the Weather History Date:

Friday, November 1, 2013

  Actual Average Record
Temperature  
Mean Temperature 40 °F -  
Max Temperature 46 °F 42 °F 51 °F (1952)
Min Temperature 35 °F 30 °F 4 °F (1991)
Degree Days  
Heating Degree Days 24    
Moisture  
Dew Point 37 °F    
Average Humidity 85    
Maximum Humidity 100    
Minimum Humidity 71    
Precipitation  
Precipitation 0.00 in - - ()
Sea Level Pressure  
Sea Level Pressure 30.02 in    
Wind  
Wind Speed 7 mph (SE)    
Max Wind Speed 13 mph    
Max Gust Speed -    
Visibility 10 miles    
Events      
Averages and records for this station are not official NWS values.
T = Trace of Precipitation, MM = Missing Value Source: NWS Daily Summary

Daily Weather History Graph

Daily Weather History Graph

Search for Another Location

Airport or City:

Trip Planner

Search our weather history database for the weather conditions in past years. The results will help you decide how hot, cold, wet, or windy it might be!

Date:

Astronomy

Nov. 01, 2013 Rise Set
Actual Time 8:19 AM AKDT 5:12 PM AKDT
Civil Twilight 7:36 AM AKDT 5:55 PM AKDT
Nautical Twilight 6:49 AM AKDT 6:42 PM AKDT
Astronomical Twilight 6:03 AM AKDT 7:28 PM AKDT
Moon 5:58 AM AKDT (11/1) 4:26 PM AKDT (11/1)
Length of Visible Light 10h 18m
Length of Day
8h 52m
Waning Crescent, 4% of the Moon is Illuminated
Nov 1
Waning Crescent
Nov 3
New
Nov 9
First Quarter
Nov 17
Full
Nov 25
Last Quarter

Hourly Weather History & Observations

Time (AKDT) Temp. Windchill Dew Point Humidity Pressure Visibility Wind Dir Wind Speed Gust Speed Precip Events Conditions
12:16 AM 42.8 °F 37.0 °F 37.4 °F 81% 29.90 in 10.0 mi SE 10.4 mph - N/A   Mostly Cloudy
12:36 AM 42.8 °F 36.6 °F 37.4 °F 81% 29.91 in 10.0 mi ESE 11.5 mph - N/A   Overcast
12:56 AM 42.8 °F 37.5 °F 37.4 °F 81% 29.92 in 10.0 mi SE 9.2 mph - N/A   Overcast
1:16 AM 42.8 °F 39.3 °F 37.4 °F 81% 29.92 in 10.0 mi SSE 5.8 mph - N/A   Overcast
1:36 AM 42.8 °F 41.1 °F 37.4 °F 81% 29.93 in 9.0 mi South 3.5 mph - N/A   Overcast
1:56 AM 42.8 °F 40.1 °F 37.4 °F 81% 29.93 in 10.0 mi ESE 4.6 mph - N/A   Overcast
2:16 AM 42.8 °F 37.5 °F 39.2 °F 87% 29.94 in 10.0 mi ESE 9.2 mph - N/A   Overcast
2:36 AM 42.8 °F 38.6 °F 37.4 °F 81% 29.94 in 10.0 mi SSE 6.9 mph - N/A   Overcast
2:56 AM 42.8 °F 39.3 °F 37.4 °F 81% 29.95 in 9.0 mi ESE 5.8 mph - N/A   Overcast
3:16 AM 42.8 °F 39.3 °F 37.4 °F 81% 29.95 in 10.0 mi ESE 5.8 mph - N/A   Overcast
3:36 AM 42.8 °F 38.0 °F 37.4 °F 81% 29.95 in 10.0 mi SE 8.1 mph - N/A   Overcast
3:56 AM 42.8 °F 37.0 °F 37.4 °F 81% 29.95 in 10.0 mi SE 10.4 mph - N/A   Mostly Cloudy
4:16 AM 42.8 °F 36.6 °F 37.4 °F 81% 29.95 in 10.0 mi SE 11.5 mph - N/A   Mostly Cloudy
4:36 AM 42.8 °F 37.5 °F 37.4 °F 81% 29.95 in 10.0 mi SE 9.2 mph - N/A   Overcast
4:56 AM 42.8 °F 39.3 °F 37.4 °F 81% 29.95 in 10.0 mi South 5.8 mph - N/A   Overcast
5:16 AM 42.8 °F 40.1 °F 37.4 °F 81% 29.96 in 10.0 mi ESE 4.6 mph - N/A   Overcast
5:36 AM 42.8 °F 39.3 °F 37.4 °F 81% 29.96 in 10.0 mi ESE 5.8 mph - N/A   Overcast
5:56 AM 42.8 °F 38.0 °F 37.4 °F 81% 29.97 in 10.0 mi SSE 8.1 mph - N/A   Overcast
6:16 AM 42.8 °F 38.0 °F 37.4 °F 81% 29.97 in 10.0 mi SE 8.1 mph - N/A   Overcast
6:36 AM 42.8 °F 38.6 °F 37.4 °F 81% 29.97 in 10.0 mi SSE 6.9 mph - N/A   Overcast
6:56 AM 41.0 °F 36.4 °F 37.4 °F 87% 29.97 in 10.0 mi SE 6.9 mph - N/A   Overcast
7:16 AM 39.2 °F 35.9 °F 37.4 °F 93% 29.98 in 10.0 mi SE 4.6 mph - N/A   Mostly Cloudy
7:36 AM 41.0 °F 35.8 °F 37.4 °F 87% 29.98 in 10.0 mi SE 8.1 mph - N/A   Overcast
7:56 AM 41.0 °F 35.2 °F 37.4 °F 87% 29.99 in 10.0 mi SE 9.2 mph - N/A   Overcast
8:16 AM 41.0 °F 36.4 °F 39.2 °F 93% 29.99 in 10.0 mi ESE 6.9 mph - N/A   Overcast
8:36 AM 41.0 °F 35.8 °F 37.4 °F 87% 30.00 in 10.0 mi ESE 8.1 mph - N/A   Overcast
8:56 AM 41.0 °F 36.4 °F 37.4 °F 87% 30.00 in 10.0 mi ESE 6.9 mph - N/A   Overcast
9:16 AM 41.0 °F 36.4 °F 37.4 °F 87% 30.01 in 10.0 mi ESE 6.9 mph - N/A   Mostly Cloudy
9:36 AM 42.8 °F 38.6 °F 39.2 °F 87% 30.01 in 10.0 mi SE 6.9 mph - N/A   Mostly Cloudy
9:56 AM 42.8 °F 38.0 °F 39.2 °F 87% 30.02 in 10.0 mi SE 8.1 mph - N/A   Overcast
10:16 AM 42.8 °F 37.5 °F 37.4 °F 81% 30.02 in 10.0 mi SE 9.2 mph - N/A   Overcast
10:36 AM 42.8 °F 38.0 °F 39.2 °F 87% 30.03 in 10.0 mi SE 8.1 mph - N/A   Overcast
10:56 AM 44.6 °F 40.7 °F 39.2 °F 81% 30.03 in 10.0 mi ESE 6.9 mph - N/A   Overcast
11:16 AM 44.6 °F 40.2 °F 39.2 °F 81% 30.03 in 10.0 mi SSE 8.1 mph - N/A   Overcast
11:36 AM 44.6 °F 41.4 °F 37.4 °F 76% 30.04 in 10.0 mi SSE 5.8 mph - N/A   Overcast
11:56 AM 44.6 °F 40.7 °F 37.4 °F 76% 30.04 in 10.0 mi SSE 6.9 mph - N/A   Mostly Cloudy
12:16 PM 44.6 °F 40.2 °F 39.2 °F 81% 30.05 in 10.0 mi SE 8.1 mph - N/A   Overcast
12:36 PM 44.6 °F 39.2 °F 37.4 °F 76% 30.05 in 10.0 mi SE 10.4 mph - N/A   Overcast
12:56 PM 44.6 °F 38.8 °F 37.4 °F 76% 30.05 in 10.0 mi SE 11.5 mph - N/A   Mostly Cloudy
1:16 PM 44.6 °F 39.2 °F 39.2 °F 81% 30.05 in 10.0 mi SE 10.4 mph - N/A   Mostly Cloudy
1:36 PM 44.6 °F 40.7 °F 39.2 °F 81% 30.05 in 10.0 mi ESE 6.9 mph - N/A   Mostly Cloudy
1:56 PM 44.6 °F 38.8 °F 37.4 °F 76% 30.05 in 10.0 mi SE 11.5 mph - N/A   Mostly Cloudy
2:16 PM 44.6 °F 39.2 °F 37.4 °F 76% 30.05 in 10.0 mi SE 10.4 mph - N/A   Overcast
2:36 PM 46.4 °F 40.7 °F 37.4 °F 71% 30.05 in 10.0 mi SE 12.7 mph - N/A   Mostly Cloudy
2:56 PM 44.6 °F 40.2 °F 37.4 °F 76% 30.05 in 10.0 mi ESE 8.1 mph - N/A   Mostly Cloudy
3:16 PM 44.6 °F 40.7 °F 37.4 °F 76% 30.05 in 10.0 mi ESE 6.9 mph - N/A   Overcast
3:36 PM 44.6 °F 39.7 °F 37.4 °F 76% 30.05 in 10.0 mi SE 9.2 mph - N/A   Overcast
3:56 PM 44.6 °F 40.7 °F 37.4 °F 76% 30.05 in 10.0 mi SE 6.9 mph - N/A   Overcast
4:16 PM 44.6 °F 41.4 °F 37.4 °F 76% 30.05 in 10.0 mi ESE 5.8 mph - N/A   Overcast
4:36 PM 44.6 °F 41.4 °F 37.4 °F 76% 30.05 in 10.0 mi SE 5.8 mph - N/A   Overcast
4:56 PM 44.6 °F 41.4 °F 39.2 °F 81% 30.06 in 10.0 mi SE 5.8 mph - N/A   Overcast
5:16 PM 44.6 °F 43.1 °F 39.2 °F 81% 30.05 in 10.0 mi SSE 3.5 mph - N/A   Overcast
5:36 PM 42.8 °F 40.1 °F 39.2 °F 87% 30.05 in 10.0 mi SE 4.6 mph - N/A   Overcast
5:56 PM 42.8 °F 41.1 °F 39.2 °F 87% 30.05 in 10.0 mi ESE 3.5 mph - N/A   Mostly Cloudy
6:16 PM 42.8 °F 41.1 °F 39.2 °F 87% 30.05 in 10.0 mi ESE 3.5 mph - N/A   Overcast
6:36 PM 42.8 °F - 37.4 °F 81% 30.05 in 10.0 mi Calm Calm - N/A   Overcast
6:56 PM 41.0 °F - 37.4 °F 87% 30.05 in 10.0 mi Calm Calm - N/A   Mostly Cloudy
7:16 PM 39.2 °F - 37.4 °F 93% 30.05 in 10.0 mi Calm Calm - N/A   Mostly Cloudy
7:36 PM 37.4 °F - 35.6 °F 93% 30.06 in 7.0 mi Calm Calm - N/A   Mostly Cloudy
7:56 PM 37.4 °F - 35.6 °F 93% 30.06 in 3.0 mi Calm Calm - N/A   Mostly Cloudy
8:16 PM 37.4 °F - 35.6 °F 93% 30.06 in 10.0 mi Calm Calm - N/A   Overcast
8:36 PM 37.4 °F - 37.4 °F 100% 30.07 in 10.0 mi Calm Calm - N/A   Overcast
8:56 PM 37.4 °F 34.9 °F 37.4 °F 100% 30.06 in 10.0 mi North 3.5 mph - N/A   Overcast
9:16 PM 37.4 °F - 35.6 °F 93% 30.06 in 10.0 mi Calm Calm - N/A   Overcast
9:36 PM 37.4 °F - 35.6 °F 93% 30.07 in 5.0 mi Calm Calm - N/A   Overcast
9:56 PM 37.4 °F - 35.6 °F 93% 30.07 in 10.0 mi Calm Calm - N/A   Overcast
10:16 PM 37.4 °F - 35.6 °F 93% 30.07 in 10.0 mi Calm Calm - N/A   Overcast
10:36 PM 35.6 °F - 35.6 °F 100% 30.07 in 10.0 mi Calm Calm - N/A   Overcast
10:56 PM 37.4 °F - 35.6 °F 93% 30.08 in 10.0 mi Calm Calm - N/A   Overcast
11:16 PM 35.6 °F - 35.6 °F 100% 30.08 in 10.0 mi Calm Calm - N/A   Overcast
11:36 PM 35.6 °F - 35.6 °F 100% 30.08 in 10.0 mi Calm Calm - N/A   Mostly Cloudy
11:56 PM 35.6 °F - 33.8 °F 93% 30.08 in 10.0 mi Calm Calm - N/A   Partly Cloudy